www.pogodaiklimat.ru

Погода и климат >> Архив погоды >> Индия >> Андхра-Прадеш >> Тирупати


ПОГОДА в Тирупати

  • Прогноз погоды в Тирупати
  • Монитор погоды в Тирупати

АРХИВ ПОГОДЫ в Тирупати

Время (UTC), дата Ветер
(напр.,м/с)
 
Видим.   Явления Облачность Т
(С)
Тd
(С)
f
(%)
Тe
(С)
Тes
(С)
Комфортность P
(гПа)
Po
(гПа)
Тmin
(С)
Tmax
(С)
R
(мм)
R24
(мм)
S
(см)
00 14.03 ЮЗ 2 4000 м мгла 3/3 600 м
[Sc]
+23.4 +13.8 55 +27 +27 душно 1013.0 1001.0
03 14.03 З 1 4000 м мгла 1/1 600 м
[Sc]
+27.2 +15.4 48 +30 +37 душно 1015.3 1003.4 +22.3 +39.2
06 14.03 Ю 4 4000 м 1/1 600 м
[Sc]
+36.2 +11.3 22 +35 +47 очень
жарко
1014.3 1002.8
09 14.03 Ю 2 4000 м 1/1 600 м
[Sc]
+39.4 +9.9 17 +38 +51 опасность
солнечного
удара
1010.3 999.0
12 14.03 ЮВ 2 4000 м ясно +35.8 +13.1 26 +36 +37 очень
жарко
1010.3 998.8 +40.3
00 15.03 З 1 4000 м мгла 3/3 600 м
[Sc]
+24.4 +15.8 59 +28 +28 душно 1012.8 1000.9
03 15.03 З 1 4000 м мгла 4/1 600 м
[Sc Ci fib]
+27.4 +14.0 44 +30 +36 жарко 1015.6 1003.7 +23.0 +40.3
06 15.03 Ю 1 4000 м 1/1 600 м
[Sc]
+33.4 +11.3 26 +33 +54 опасность
солнечного
удара
1015.3 1003.0
09 15.03 В 3 4000 м 1/1 600 м
[Sc]
+39.4 +8.7 16 +38 +48 очень
жарко
1010.8 999.5
12 15.03 В 6 4000 м 1/1 600 м
[Sc]
+35.4 +12.0 24 +35 +35 очень
жарко
1010.5 999.0 +40.0
00 16.03 З 2 4000 м мгла 3/1 600 м
[Sc Ci fib]
+22.0 +13.7 59 +25 +25 комфорт 1013.0 1001.0
03 16.03 ЮЗ 1 4000 м мгла 3/1 600 м
[Sc Ci fib]
+26.6 +24.8 90 +38 +45 очень
душно
1015.1 1003.2 +20.4 +40.0
06 16.03 В 3 4000 м 1/1 600 м
[Sc]
+34.4 +17.3 36 +38 +54 опасность
солнечного
удара
1014.9 1003.4
09 16.03 В 4 4000 м 3/3 600 м
[Sc]
+37.6 +16.4 29 +40 +46 очень
душно
1011.0 999.6
12 16.03 В 4 4000 м 1/1 600 м
[Sc]
+35.0 +15.6 31 +37 +37 очень
душно
1010.7 999.2 +38.2
00 17.03 В 1 4000 м мгла 3/1 600 м
[Sc Ci fib]
+22.2 +20.3 89 +28 +28 душно 1013.3 1001.3
03 17.03 З 1 2000 м мгла 5/3 600 м
[Sc Ci fib]
+25.4 +19.5 70 +31 +36 очень
душно
1015.7 1003.8 +21.8 +38.2
06 17.03 В 3 4000 м 3/3 600 м
[Sc]
+32.0 +17.6 42 +36 +47 очень
душно
1015.8 1004.1
09 17.03 В 4 4000 м 3/3 600 м
[Sc]
+35.0 +16.9 34 +38 +44 очень
душно
1011.0 999.5
12 17.03 В 5 4000 м 3/1 600 м
[Sc Ci fib]
+34.6 +18.3 38 +39 +39 очень
душно
1010.2 998.7 +36.3
00 18.03 З 3 2000 м дымка 1/1 600 м
[Sc]
+24.4 +20.4 78 +30 +30 очень
душно
1012.7 1000.8
03 18.03 З 3 4000 м мгла 1/1 600 м
[Sc]
+27.0 +20.3 67 +33 +38 очень
душно
1015.1 1003.2 +23.1 +36.3
06 18.03 Ю 4 4000 м 1/1 600 м
[Sc]
+33.6 +17.0 37 +37 +49 очень
душно
1014.0 1002.4
09 18.03 Ю 2 4000 м 1/1 600 м
[Sc]
+36.0 +15.3 29 +38 +50 очень
душно
1010.0 998.5
12 18.03 В 2 4000 м 1/1 600 м
[Sc]
+33.8 +16.4 35 +36 +37 очень
душно
1009.6 998.0 +37.6
00 19.03 З 5 4000 м мгла 3/3 600 м
[Sc]
+25.8 +20.3 72 +32 +32 очень
душно
1010.7 998.8
03 19.03 З 5 4000 м мгла 3/3 600 м
[Sc]
+28.4 +20.9 64 +36 +38 очень
душно
1012.8 1001.0 +23.5 +37.6
06 19.03 Ю 3 4000 м 1/1 600 м
[Sc]
+34.6 +17.5 36 +38 +53 опасность
солнечного
удара
1011.5 1000.0
09 19.03 ЮВ 2 4000 м 1/1 600 м
[Sc]
+37.4 +16.1 28 +39 +53 опасность
солнечного
удара
1007.8 996.4
12 19.03 СВ 5 4000 м ясно +34.0 +18.7 40 +39 +39 очень
душно
1007.0 995.5 +38.0
00 20.03 З 5 4000 м мгла 3/1 600 м
[Sc Ci fib]
+25.4 +21.5 79 +32 +32 очень
душно
1009.4 997.5
03 20.03 ЮЗ 7 4000 м мгла 3/1 600 м
[Sc Ci fib]
+27.8 +21.1 67 +35 +37 очень
душно
1012.2 1000.4 +25.0 +38.0
06 20.03 Ю 6 4000 м 1/1 600 м
[Sc]
+34.0 +18.3 39 +38 +46 очень
душно
1011.2 999.6
09 20.03 Ю 6 4000 м 1/1 600 м
[Sc]
+37.0 +16.8 30 +39 +44 очень
душно
1007.9 996.5
12 20.03 Ю 4 4000 м 1/1 600 м
[Sc]
+35.0 +18.1 37 +39 +39 очень
душно
1007.5 996.0 +38.0

 

Местоположение метеостанции Тирупати (Андхра-Прадеш, Индия): широта 13.67 долгота 79.58 высота над уровнем моря 105 м.

В архиве по умолчанию представлена погода в Тирупати за последнюю неделю. Архивные данные за месяц целиком и за предыдущие месяцы, начиная с января 2011 года, Вы можете получить, выбрав интересующий диапазон дат из раскрывающегося списка и нажав кнопку "Ввод!".


*Определитесь, кто Вы:
робот инопланетянин человек

Внимание! Время в таблицах - всемирное. Для получения местного времени необходимо прибавить поправку, которая равна 5.5 ч.

Смотрите также архив погоды в соседних городах и на ближайших метеорологических станциях:

Погода в Терутани (Тамилнад, Индия) (58 км)
Погода в Ченнаи (Тамилнад, Индия) (95 км)
Погода в Веллоре (Тамилнад, Индия) (96 км)
Погода в Неллуру (Андхра-Прадеш, Индия) (97 км)
Погода в Ченнаи аэропорту (Тамилнад, Индия) (99 км)
Погода в Маданапалле (Андхра-Прадеш, Индия) (118 км)
Погода в Кавали (Андхра-Прадеш, Индия) (143 км)
Погода в Чинтамани (Карнатака, Индия) (172 км)
Погода в Тирупатчере (Тамилнад, Индия) (172 км)
Погода в Чикканахолли (Карнатака, Индия) (179 км)

Пояснения к столбцам:

Ветер - указаны скорость ветра в м/с - средняя за 10 мин, порывы в срок и между сроками (в фигурных скобках) и направление, откуда дует ветер: С - северный, СВ - северо-восточный, В - восточный, ЮВ - юго-восточный, Ю - южный, ЮЗ - юго-западный, З - западный, СЗ - северо-западный.
Видимость - горизонтальная дальность видимости в метрах или километрах. При видимости от 1 до 10 км при отсутствии осадков обычно наблюдается дымка, при ухудшении видимости до 1 км и менее - туман. В сухую погоду видимость может ухудшаться дымом, пылью или мглою.
Явления - указаны атмосферные явления, наблюдавшиеся в срок или в последний час перед сроком; фигурными скобками обозначены явления, наблюдавшиеся между сроками (за 1-3 часа до срока); квадратными скобками обозначены град или гололедные отложения с указанием их диаметра в мм.
Облачность - указаны через наклонную черту общая и нижняя облачность в баллах и высота нижней границы облаков в метрах; квадратными скобками обозначены формы облаков: Ci - перистые, Cs - перисто-слоистые, Cc - перисто-кучевые, Ac - высококучевые, As - высокослоистые, Sc - слоисто-кучевые, Ns - слоисто-дождевые, Cu - кучевые, Cb - кучево-дождевые. Подробнее классификацию облаков см. в Атласе облаков (PDF).
T - Температура воздуха - температура, измеренная на высоте 2 м над землей.
Td - Температура точки росы - температура, при понижении до которой содержащийся в воздухе водяной пар достигнет насыщения.
f - Относительная влажность воздуха - влажноcть воздуха, измеренная на высоте 2 м над землей.
Te - Эффективная температура - температура, которую ощущает одетый по сезону человек в тени. Характеристика душности погоды. При расчете учитывается влияние влажности воздуха и скорости ветра на теплоощущения человека.
Tes - Эффективная температура на солнце - температура, которую ощущает человек, с поправкой на солнечный нагрев. Характеристика знойности погоды. Зависит от высоты солнца над горизонтом, облачности и скорости ветра. Ночью, в пасмурную погоду, а также при ветре 12 м/с и более поправка равна нулю.
P - Атмосферное давление - приведенное к уровню моря атмосферное давление.
Po - Атмосферное давление - измеренное на уровне метеостанции атмосферное давление.
Tmin - Минимальная температура - минимум температуры воздуха на высоте 2 м над землей.
Tmax - Максимальная температура - максимум температуры воздуха на высоте 2 м над землей.
R - Количество осадков - Количество выпавших осадков за период времени, мм. При наведении курсора мыши на число - период времени, за который выпало указанное количество осадков.
R24 - Количество осадков - Количество выпавших осадков за 24 часа, мм.
S - Снежный покров - Высота снежного покрова, см. При наведении курсора мыши на число - состояние снежного покрова и степень покрытия местности в баллах.